sat.trackr.live / text

‹ back to catalog

STARLINK-35711

NORAD 66595 · 2025-270H

PAYLOAD ACTIVE UNKNOWN

§ Identity

Operator
Country
US
Launch date
2025-11-22
Launch site
AFETR
Launch vehicle
Mass (kg)
RCS (m²)

Purposes: comms

External: N2YO · Heavens-Above · Gunter

§ Orbital elements

Epoch: 2026-05-24T21:42:45.355104Z

Period
94.27 min
Inclination
43.0046°
Eccentricity
0.0002246
Mean motion
15.27604615 rev/d
Perigee alt
481.4 km
Apogee alt
484.5 km
Semi-major
6,861.1 km
B*
7.3688e-4
RAAN
345.6118°
Arg perigee
261.9597°
Mean anomaly
98.1000°
Rev number
2,947

§ Raw data

STARLINK-357111 66595U 25270H   26144.90469161  .00020086  00000+0  73688-3 0  99902 66595  43.0046 345.6118 0002246 261.9597  98.1000 15.27604615 29478

JSON: /api/v1/satellites/66595 · /tle

For live sub-satellite position, see the globe view (requires WebGL).

§ Visibility from observer

Set your observer location to see the next 7 days of passes ≥ 10°. The values pass through the URL so the page stays shareable.

No JS? Fill the form by hand. The geolocation button needs JavaScript.